Probability
0 0 0 0 0 0 0 0 0 0 0 0 0 0 0 0 0 0 0 0 0 0 0 0 0 0 0 0 0 0 0 0 0 0 0 0 0 0 0 0 0 0 0
0 0 0 0 0 0 0 0 0 0 0 0 0 0 0 0 0 0 0 0 0 0 0 0 0 0 0 0 0 0 0 0 0 0 0 0 0 0 0 0 0 0 0
0 0 0 0 0 0 0 0 0 0 0 0 0 0 0 0 0 0 0 0 0 0 0 0 0 0 0 0 0 0 0 0 0 0 0 0 0 0 0 0 0 0 0
0 0 0 0 0 0 0 0 0 0 0 0 0 0 0 0 0 0 0 0 0 0 0 0 0 0 0 0 0 0 0 0 0 0 0 0 0 0 0 0 0 0 0
0 0 0 0 0 0 0 0 0 0 0 0 0 0 0 0 0 0 0 0 0 0 0 0 0 0 0 0 0 0 0 0 0 0 0 0 0 0 0 0 0 0 0
0 0 0 0 0 0 0 0 0 0 0 0 0 0 0 0 0 0 0 0 0 0 0 0 0 0 0 0 0 0 0 0 0 0 0 0 0 0 0 0 0 0 0
0 0 0 0 0 0 0 0 0 0 0 0 0 0 0 0 0 0 0 0 0 0 0 0 0 0 0 0 0 0 0 0 0 0 0 0 0 0 0 0 0 0 0
0 0 0 0 0 0 0 0 0 0 0 0 0 0 0 0 0 0 0 0 0 0 0 0 0 0 0 0 0 0 0 0 0 0 0 0 0 0 0 0 0 0 0
0 0 0 0 0 0 0 0 0 0 0 0 0 0 0 0 0 0 0 0 0 0 0 0 0 0 0 0 0 0 0 0 0 0 0 0 0 0 0 0 0 0 0
0 0 0 0 0 0 0 0 0 0 0 1 0 0 0 0 0 0 0 0 0 0 0 0 0 0 0 0 0 0 0 0 0 0 0 0 0 0 0 0 0 0 0
0 0 0 0 0 0 0 0 0 0 0 0 0 0 0 0 0 0 0 0 0 0 0 0 0 0 0 0 0 0 0 0 0 0 0 0 0 0 0 0 0 0 0
0 0 0 0 0 0 0 0 0 0 0 0 0 0 0 0 0 0 0 0 0 0 0 0 0 0 0 0 0 0 0 0 0 0 0 0 0 0 0 0 0 0 0
0 0 0 0 0 0 0 0 0 0 0 0 0 0 0 0 0 0 0 0 0 0 0 0 0 0 0 0 0 0 0 0 0 0 0 0 0 0 0 0 0 0 0
0 0 0 0 0 0 0 0 0 0 0 0 0 0 0 0 0 0 0 0 0 0 0 0 0 0 0 0 0 0 0 0 0 0 0 0 0 0 0 0 0 0 0
0 0 0 0 0 0 0 0 0 0 0 0 0 0 0 0 0 0 0 0 0 0 0 0 0 0 0 0 0 0 0 0 0 0 0 0 0 0 0 0 0 0 0
0 0 0 0 0 0 0 0 0 0 0 0 0 0 0 0 0 0 0 0 0 0 0 0 0 0 0 0 0 0 0 0 0 0 0 0 0 0 0 0 0 0 0
0 0 0 0 0 0 0 0 0 0 0 0 0 0 0 0 0 0 0 0 0 0 0 0 0 0 0 0 0 0 0 0 0 0 0 0 0 0 0 0 0 0 0
0 0 0 0 0 0 0 0 0 0 0 0 0 0 0 0 0 0 0 0 0 0 0 0 0 0 0 0 0 0 0 0 0 0 0 0 0 0 0 0 0 0 0
0 0 0 0 0 0 0 0 0 0 0 0 0 0 0 0 0 0 0 0 0 0 0 0 0 0 0 0 0 0 0 0 0 0 0 0 0 0 0 0 0 0 0
0 0 0 0 0 0 0 0 0 0 0 0 0 0 0 0 0 0 0 0 0 0 0 0 0 0 0 0 0 0 0 0 0 0 0 0 0 0 0 0 0 0 0
0 0 0 0 0 0 0 0 0 0 0 0 0 0 0 0 0 0 0 0 0 0 0 0 0 0 0 0 0 0 0 0 0 0 0 0 0 0 0 0 0 0 0
0 0 0 0 0 0 0 0 0 0 0 0 0 0 0 0 0 0 0 0 0 0 0 0 0 0 0 0 0 0 0 0 0 0 0 0 0 0 0 0 0 0 0
0 0 0 0 0 0 0 0 0 0 0 0 0 0 0 0 0 0 0 0 0 0 0 0 0 0 0 0 0 0 0 0 0 0 0 0 0 0 0 0 0 0 0
0 0 0 0 0 0 0 0 0 0 0 0 0 0 0 0 0 0 0 0 0 0 0 0 0 0 0 0 0 0 0 0 0 0 0 0 0 0 0 0 0 0 0
0 0 0 0 0 0 0 0 0 0 0 0 0 0 0 0 0 0 0 0 0 0 0 0 0 0 0 0 0 0 0 0 0 0 0 0 0 0 0 0 0 0 0
0 0 0 0 0 0 0 0 0 0 0 0 0 0 0 0 0 0 0 0 0 0 0 0 0 0 0 0 0 0 0 0 0 0 0 0 0 0 0 0 0 0 0
Wind_Speed
4 4 4 4 4 4 4 5 5 5 6 6 6 6 6 6 6 5 5 6 6 6 6 7 7 7 5 5 5 5 5 5 7 6 4 4 5 5 5 5 5 5 5
4 4 4 4 4 5 5 5 5 6 6 6 6 6 6 7 6 6 7 7 7 7 7 7 8 7 7 6 5 6 6 6 6 8 5 4 5 5 5 5 5 5 4
3 4 4 5 5 5 6 6 5 6 6 6 6 6 7 7 7 7 7 7 8 8 8 8 8 8 8 7 7 7 6 6 5 6 6 4 4 4 4 5 5 4 5
3 4 5 5 5 6 6 6 6 6 6 6 6 7 7 8 8 8 8 8 8 8 9 9 8 8 9 8 7 8 7 6 6 5 5 5 4 3 4 4 4 4 4
4 5 5 6 6 6 6 6 6 6 7 7 7 7 7 7 7 8 9 9 8 8 8 8 9 11 12 11 8 7 7 6 6 6 6 5 4 4 4 4 5 4 4
4 5 6 6 6 6 6 6 6 6 7 7 7 7 8 7 12 15 12 8 8 9 9 8 9 10 12 14 15 14 12 9 8 7 7 7 7 6 4 4 4 4 5
5 6 6 6 6 7 7 7 7 7 7 7 8 7 8 10 15 16 15 10 8 8 8 8 8 8 11 9 12 14 14 15 15 10 9 9 8 7 6 7 6 6 6
5 6 6 6 7 7 7 7 7 6 7 7 8 8 8 10 15 16 16 10 8 8 8 9 9 9 9 11 10 10 10 10 11 10 9 9 9 8 8 9 8 6 5
6 6 6 6 7 7 7 7 7 6 7 7 8 7 8 9 14 16 15 7 7 8 9 9 9 9 13 15 10 9 10 8 10 13 14 13 13 13 10 5 5 5 6
6 7 7 7 7 8 8 7 6 6 7 8 8 7 7 8 13 15 15 6 7 7 7 8 12 12 14 14 9 8 9 7 6 6 8 8 7 8 10 8 6 6 5
7 7 7 7 7 8 7 6 6 6 6 6 8 7 7 9 12 15 15 7 6 7 7 6 6 13 14 14 12 8 9 8 5 5 5 5 5 5 5 6 6 6 6
7 7 7 7 6 6 6 6 6 5 6 6 6 7 6 7 10 12 15 13 11 8 7 6 7 13 14 15 10 9 11 9 4 4 4 4 4 4 4 5 5 6 6
7 7 7 7 6 6 6 7 6 4 4 5 5 6 6 6 7 13 15 15 15 9 7 11 13 14 13 9 10 11 8 4 3 4 4 4 3 4 3 3 3 3 3
7 7 7 6 6 6 5 5 5 5 4 5 6 6 6 6 6 6 6 7 10 9 7 9 12 12 9 8 7 5 4 3 4 4 4 3 3 3 3 3 3 3 2
7 6 6 6 6 5 5 4 6 5 6 7 6 6 7 6 8 13 10 7 6 6 6 4 4 4 3 3 3 3 3 3 3 3 3 3 3 4 3 3 3 3 3
6 6 5 5 5 5 5 6 9 10 12 13 13 12 9 12 15 15 15 14 13 12 7 4 4 4 4 4 4 4 4 3 3 3 3 3 3 4 4 3 3 3 4
6 6 5 5 5 5 5 6 7 9 11 12 13 15 14 15 15 15 14 13 11 9 4 3 4 4 4 4 4 4 4 4 3 3 3 3 3 4 4 3 3 3 3
6 7 7 5 5 5 5 6 6 7 8 7 9 14 15 14 14 13 12 10 6 5 3 4 4 4 4 4 4 4 4 4 4 3 3 3 4 4 4 4 4 4 4
6 5 5 5 5 5 5 6 6 7 7 7 7 9 13 13 13 12 10 4 4 4 4 4 4 5 4 4 4 4 4 4 4 4 4 4 4 4 4 4 4 5 4
5 9 8 5 5 5 5 5 6 6 6 6 7 7 8 8 6 6 5 5 4 5 5 5 5 5 5 4 4 4 4 4 4 4 4 4 4 4 4 4 3 3 2
5 6 10 7 5 5 5 5 6 6 6 6 6 9 13 7 5 6 5 5 5 5 5 5 5 5 5 4 4 5 5 5 5 5 4 4 4 4 3 3 2 2 2
5 4 5 5 5 5 6 5 5 6 6 7 7 8 13 7 5 5 5 5 5 5 5 5 5 5 5 5 5 5 5 5 5 5 5 5 4 4 3 2 2 2 2
5 5 5 5 5 8 7 5 5 6 6 6 7 7 7 6 6 6 6 6 5 5 5 5 5 5 5 5 5 5 5 6 5 5 5 5 4 3 3 2 2 2 2
4 5 5 5 5 5 5 6 6 6 6 6 6 6 6 6 6 7 6 6 6 6 5 5 5 7 8 7 5 5 6 6 6 5 6 5 4 3 3 2 2 3 3
3 4 5 5 5 5 5 6 6 6 6 7 6 6 6 6 6 6 6 6 7 7 7 7 6 6 8 9 8 8 10 12 11 6 4 3 3 3 2 2 2 2 2
4 5 5 4 5 5 5 6 6 6 6 6 6 6 6 6 7 7 6 6 6 7 7 6 7 8 9 8 10 12 13 12 11 9 4 2 2 2 2 1 2 2 2
Wind_Direction
298 300 303 301 302 301 296 295 297 298 302 300 302 303 302 300 296 292 289 287 281 280 273 265 264 264 257 252 249 244 250 252 261 271 268 270 260 260 273 272 272 267 269
294 297 297 301 303 301 298 297 297 296 297 295 297 296 296 296 292 287 287 288 281 278 276 270 267 266 258 254 247 244 246 247 254 267 269 263 262 253 253 258 271 272 267
297 298 301 300 299 298 296 296 297 296 295 297 294 292 292 292 291 285 280 280 276 272 269 266 266 268 265 260 253 248 249 252 252 257 264 266 268 262 261 267 265 265 270
299 296 293 293 290 289 291 294 295 294 294 293 290 286 288 289 290 287 282 278 274 272 269 266 263 257 262 262 260 250 249 251 252 252 258 261 261 257 246 256 267 260 266
298 295 290 292 291 291 291 291 291 293 294 292 293 289 288 287 286 289 286 280 277 273 269 266 266 264 266 265 262 253 248 245 247 249 254 259 252 243 242 249 259 269 265
292 289 291 295 295 293 291 292 294 295 294 292 292 290 291 291 298 299 297 285 278 273 273 272 272 268 268 273 272 267 260 250 246 245 248 246 246 243 244 245 253 261 265
288 290 294 296 296 294 294 296 295 294 292 290 290 286 282 286 297 301 301 291 278 272 270 271 273 273 276 273 272 271 265 259 254 249 247 246 243 235 233 241 242 248 255
289 292 296 297 296 297 295 292 291 289 288 286 289 286 286 291 300 303 302 294 281 273 268 265 266 269 264 271 265 262 259 254 251 247 243 244 243 241 231 235 240 251 267
294 298 299 297 296 297 294 293 290 289 289 287 288 285 285 291 299 302 303 293 283 278 273 270 270 268 272 276 270 266 267 264 262 259 257 256 255 254 250 243 234 234 255
299 299 298 297 297 295 291 292 292 289 288 291 291 287 284 288 296 301 303 291 288 286 281 276 277 278 280 280 268 263 266 267 265 267 267 265 260 253 250 237 227 229 245
303 302 300 299 296 292 292 294 292 291 293 291 291 290 285 288 296 299 301 295 289 289 289 287 284 290 291 287 282 268 267 275 265 259 259 260 252 244 237 235 230 225 231
307 304 302 301 299 302 301 301 300 294 294 293 293 295 289 289 296 298 300 299 300 289 286 287 289 296 297 294 288 283 284 284 266 256 253 251 250 245 241 238 241 239 243
310 306 304 305 304 304 302 303 305 300 292 293 293 295 299 297 296 301 302 303 302 297 290 294 298 301 300 295 293 296 294 278 263 260 258 257 251 247 245 241 250 249 258
307 306 307 308 306 304 302 300 302 296 293 293 292 295 297 298 296 294 292 295 299 299 301 302 306 308 306 304 303 299 290 275 270 261 265 264 264 257 248 242 245 243 253
306 303 306 306 302 303 302 295 296 282 285 293 292 289 295 295 298 306 307 301 300 296 304 302 305 307 306 306 304 300 293 289 286 275 268 267 269 267 263 255 245 237 239
308 308 305 304 304 306 307 309 306 304 305 303 304 302 295 298 305 308 309 311 313 315 313 304 305 303 302 301 299 300 298 292 289 290 284 274 272 269 266 260 240 231 234
298 302 301 304 308 309 310 311 313 317 313 310 311 313 311 309 311 312 313 317 320 321 314 305 302 301 300 299 295 293 296 296 293 288 284 281 276 272 264 259 244 233 235
298 300 305 300 303 304 306 307 308 312 317 317 318 319 321 322 321 322 325 329 325 327 314 303 298 298 299 298 296 295 296 298 295 290 285 283 279 274 267 258 244 235 233
304 302 300 299 300 302 307 308 308 310 310 313 317 319 323 323 324 326 331 330 316 312 310 304 300 298 298 297 296 292 289 289 292 292 287 283 279 276 269 260 251 246 242
300 306 312 306 304 307 309 309 310 310 310 311 314 317 319 319 318 322 326 320 312 307 306 303 301 298 297 296 296 295 291 290 291 288 285 283 280 275 270 267 259 244 232
299 303 312 312 307 306 306 305 305 305 307 308 310 313 317 315 314 314 314 313 308 305 304 302 301 301 298 296 294 291 289 287 287 285 285 284 282 282 278 268 262 247 215
300 301 303 304 304 306 304 303 306 308 310 311 311 315 321 322 316 312 309 306 303 300 301 299 297 295 293 293 292 289 286 284 284 284 284 285 283 282 278 269 261 235 199
303 305 306 307 308 312 317 316 311 308 308 309 310 313 316 317 314 311 309 308 307 305 303 298 294 293 293 290 284 278 277 279 280 280 281 281 278 275 270 262 248 226 210
302 305 308 309 310 308 308 309 309 308 308 308 309 310 311 311 311 311 310 309 308 306 304 301 296 293 292 292 289 284 278 278 279 275 270 265 265 266 261 251 234 216 209
309 309 307 305 306 307 306 307 307 308 309 310 310 310 310 310 311 312 312 310 309 306 306 304 300 298 296 294 291 289 289 290 290 286 271 261 259 257 249 237 220 206 200
310 308 305 304 303 304 304 305 307 311 312 311 311 311 310 310 309 309 310 310 310 308 307 305 302 301 300 298 295 295 298 297 296 295 287 262 256 258 245 225 200 185 180